Regional Weather Roundup
Issued by NWS

Home | Current Version | Previous Version | Graphics & Text | Print | Product List | Glossary On
Versions: 1 2 3 4 5 6 7 8 9 10 11 12 13 14 15 16 17 18 19 20 21 22 23 24 25 26 27 28 29 30 31 32 33 34 35 36 37 38 39 40 41 42 43 44 45 46 47 48 49 50
000
ASUS44 KMEG 240000
RWRTN
TENNESSEE HOURLY STATE WEATHER ROUNDUP
NATIONAL WEATHER SERVICE MEMPHIS TN
700 PM CDT SAT JUL 23 2016

TNZ002-004-019-021-049-052-054-088>092-240100-
WEST TENNESSEE

CITY           SKY/WX    TMP DP  RH WIND       PRES   REMARKS
MEMPHIS INTL   CLOUDY    86  74  67 VRB3      29.90F HX  94
NWS MEMPHIS      N/A     84 N/A N/A MISG        N/A
JACKSON        MOSUNNY   87  75  67 SW3       29.93R HX  96
DYERSBURG      CLOUDY    84  77  79 MISG      29.92R HX  94
UNION CITY     MOSUNNY   88  79  74 SW3       29.91R HX 102
PARIS          MOSUNNY   86  75  70 S7        29.94R HX  95
LEXINGTON      MOSUNNY   81  77  89 CALM      29.94R
$$

TNZ008-025-027-028-033-062-065-066-240100-
NORTH MIDDLE TENNESSEE

CITY           SKY/WX    TMP DP  RH WIND       PRES   REMARKS
NASHVILLE      PTSUNNY   86  69  56 S9        29.96R HX  90
CLARKSVILLE    CLOUDY    91  76  61 CALM      29.92R HX 103
COOKEVILLE     CLEAR     81  73  78 SE5       30.01R
CROSSVILLE     CLOUDY    74  70  87 VRB5      30.08F
$$

TNZ061-075-076-078-094-096-097-240100-
SOUTH MIDDLE TENNESSEE

CITY           SKY/WX    TMP DP  RH WIND       PRES   REMARKS
TULLAHOMA      CLOUDY    73  73 100 SW7       30.05S
WINCHESTER     CLEAR     75  73  94 CALM      30.04R
MCMINNVILLE    MOCLDY    84  73  70 S5        30.03R HX  91
COLUMBIA       SUNNY     88  82  84 E5        29.96R HX 108
SHELBYVILLE    CLOUDY    75  73  94 S7        30.04R
$$

TNZ017-018-042-046-047-240100-
NORTHEAST TENNESSEE

CITY           SKY/WX    TMP DP  RH WIND       PRES   REMARKS
TRI CITIES     MOCLDY    84  66  54 CALM      30.01S
$$

TNZ012-013-036-069-073-074-240100-
CENTRAL EAST TENNESSEE

CITY           SKY/WX    TMP DP  RH WIND       PRES   REMARKS
KNOXVILLE      CLOUDY    77  71  82 W10       30.01R
OAK RIDGE      CLOUDY    77  71  82 W6        30.02F
GATLINBURG     MOCLDY    81  64  57 W7        30.00F
$$

TNZ083-085-099-240100-
SOUTHEAST TENNESSEE

CITY           SKY/WX    TMP DP  RH WIND       PRES   REMARKS
CHATTANOOGA    MOCLDY    85  69  58 SW7       30.01R
$$

SKY/WX REPORTED AS FAIR MEANS FEW OR NO CLOUDS BELOW
12 THOUSAND FEET.





USA.gov is the U.S. government's official web portal to all federal, state and local government web resources and services.